Temp
81 80 81 81 80 80 79 79 79 79 78 77 78 78 78 78 77 76 75 74 74 73 72 72 72 72 72 72 72 71 71 71 71 70 69 68 69 68 68 67 68 68 68 67 68 67 69 69 69 69 68 68 68 68 68 68 69 72 69 68 68 67 66
80 80 80 80 80 80 79 79 79 80 78 78 78 78 78 77 76 76 75 74 74 74 73 73 73 72 72 72 72 71 71 71 72 73 71 71 71 68 68 68 68 67 67 68 67 68 69 69 69 68 69 69 69 68 68 68 69 68 69 68 67 66 66
79 79 80 80 80 79 79 79 79 80 79 79 79 78 78 77 77 76 75 74 74 73 73 73 73 72 73 72 72 71 71 71 71 71 69 70 69 69 68 68 67 68 68 67 67 68 70 69 68 68 68 68 68 68 68 68 68 68 68 68 69 69 65
78 79 80 80 80 80 80 79 79 80 80 80 79 79 78 77 77 77 76 75 74 73 72 73 73 73 73 72 72 71 71 71 71 71 71 69 69 68 68 68 68 67 68 67 69 70 71 69 68 68 72 68 68 68 68 68 68 67 68 68 67 67 67
78 79 79 79 79 78 78 78 79 80 80 81 80 79 79 78 77 77 76 76 76 74 74 74 75 74 74 73 73 72 72 71 70 70 70 70 69 68 68 68 67 67 68 67 67 70 68 68 68 68 68 68 68 67 68 67 67 67 67 67 67 67 67
77 77 77 79 79 79 79 79 81 81 80 80 79 79 78 78 78 78 77 76 75 75 74 74 74 74 73 73 73 72 72 71 71 71 70 69 69 68 68 69 68 67 66 67 69 68 68 68 68 68 68 68 68 68 67 66 67 67 67 66 67 68 68
77 77 77 79 79 79 79 80 81 81 81 81 80 80 79 79 78 78 77 76 76 74 73 73 74 74 73 73 73 72 71 71 70 70 70 70 70 70 69 68 69 68 69 67 67 68 68 68 69 68 68 68 68 68 67 67 67 67 67 66 67 67 67
79 77 77 79 80 80 80 80 81 81 81 80 79 79 78 78 78 78 77 77 77 76 75 75 74 74 73 72 73 72 72 71 71 71 70 70 69 70 69 68 68 69 67 67 69 68 69 69 69 68 68 68 67 67 68 67 67 67 66 66 66 66 68
80 79 78 80 80 81 81 80 80 80 79 78 79 78 78 78 78 78 78 78 77 76 76 77 75 74 73 72 72 72 72 71 71 70 70 71 69 70 69 69 69 69 68 68 69 68 69 69 69 68 68 67 67 67 67 67 67 67 67 66 66 66 66
74 73 76 80 81 81 80 80 79 78 78 77 77 77 77 77 78 78 78 78 78 77 77 77 76 75 73 72 72 72 71 71 71 71 71 72 71 71 71 71 71 70 68 68 68 68 69 68 68 68 68 67 68 67 67 67 67 67 67 67 66 66 66
74 75 74 76 77 77 77 78 77 77 77 77 77 77 77 77 77 78 77 78 78 78 78 78 76 75 74 73 72 72 71 71 71 71 71 72 72 72 72 72 72 70 69 69 68 68 68 68 68 67 67 68 67 66 66 67 67 67 67 67 67 66 66
73 73 73 75 75 75 76 77 77 77 77 77 77 77 77 77 77 77 78 78 79 78 78 78 77 76 74 74 73 72 72 72 71 72 72 72 72 72 72 72 70 69 70 69 68 67 67 66 66 68 65 65 66 65 66 66 66 67 67 67 67 66 65
73 73 73 74 74 76 76 75 75 76 77 77 77 77 77 77 77 78 77 77 79 79 78 77 76 75 74 74 74 72 72 72 72 72 72 72 71 71 71 71 71 71 70 69 70 69 68 66 65 66 66 66 65 65 66 66 66 66 66 66 66 65 64
76 73 74 75 74 73 75 75 75 75 76 76 76 77 77 77 78 77 77 77 78 79 78 78 76 75 74 74 73 73 73 73 72 72 72 72 71 70 70 70 69 69 69 69 68 68 67 66 66 65 66 66 66 66 66 65 64 64 64 65 66 65 65
73 74 73 74 74 74 75 75 75 75 75 76 76 76 76 76 77 77 77 78 78 79 78 77 75 74 74 74 72 73 73 73 72 72 72 72 70 69 69 69 68 67 68 68 68 69 66 66 66 65 65 65 65 65 66 67 67 67 65 65 66 65 65
75 75 75 74 74 75 75 76 76 75 75 74 75 75 75 75 76 76 76 77 78 78 78 76 75 74 74 73 73 73 73 72 72 72 71 70 70 69 69 69 68 68 67 67 67 66 66 66 66 65 66 66 64 64 66 67 67 69 68 68 67 65 66
74 76 76 76 75 75 76 75 75 75 74 74 74 75 75 75 76 76 77 78 78 77 77 76 75 74 74 73 74 74 73 72 71 71 70 70 70 68 68 67 68 67 67 66 66 67 67 67 65 66 66 66 66 65 66 67 68 68 65 65 67 67 65
72 73 74 75 75 75 75 75 74 73 73 74 75 75 75 75 75 76 76 76 77 77 76 76 75 74 73 74 74 73 72 72 71 70 70 69 69 68 68 67 67 67 66 66 66 66 67 66 66 67 67 68 67 67 67 67 69 65 64 65 65 67 67
71 72 73 73 73 74 75 76 75 74 75 75 75 75 76 76 76 75 76 74 74 75 75 75 75 74 73 73 73 72 72 72 71 70 69 69 69 68 67 67 67 67 66 67 68 66 66 67 66 67 67 67 67 67 68 67 68 64 63 63 64 64 66
71 72 72 73 73 74 75 76 76 76 76 76 76 78 78 77 77 77 76 75 73 74 74 74 74 74 73 73 72 72 71 71 71 70 69 68 68 67 67 67 68 68 68 67 67 67 67 67 67 67 67 67 67 67 68 67 67 64 63 62 62 63 64
73 73 74 74 74 74 73 74 75 75 74 75 77 77 76 75 75 74 73 73 72 72 73 73 73 72 72 71 70 70 69 69 69 69 68 68 67 67 67 67 67 67 67 67 67 67 67 67 67 68 68 68 68 67 67 68 64 62 62 60 59 60 63
73 73 73 73 73 73 74 74 75 75 75 77 77 76 76 75 74 74 73 72 73 72 72 72 72 71 70 70 69 69 69 69 69 69 68 67 67 67 67 67 67 67 66 67 67 68 68 68 68 68 68 68 68 68 67 68 64 61 61 60 58 60 63
77 74 75 73 74 75 75 76 76 77 76 76 76 76 75 74 74 74 72 72 71 70 69 69 68 68 68 68 70 70 70 70 69 68 68 67 67 67 67 67 67 66 66 67 67 67 67 67 68 68 68 68 68 67 67 68 63 59 58 58 58 60 61
75 74 73 73 72 74 74 74 75 74 75 75 76 76 75 74 74 73 72 70 68 68 68 71 69 68 69 70 71 71 70 70 70 69 68 67 67 68 69 68 65 66 67 68 67 67 68 68 67 68 68 69 69 69 68 69 64 57 56 56 57 61 61
76 75 75 76 76 74 73 74 74 74 74 74 74 74 74 74 74 73 71 69 69 68 66 68 68 69 70 71 72 72 71 70 70 70 69 68 69 70 68 66 66 69 69 69 69 69 69 69 67 65 64 65 67 71 70 69 63 54 55 55 54 59 60
73 73 74 73 74 75 74 73 73 73 74 74 74 74 74 74 73 71 70 69 69 67 68 69 71 72 73 73 73 72 71 71 70 70 70 70 69 68 67 67 67 67 68 67 68 67 65 63 63 63 63 64 65 68 69 68 64 57 51 51 53 56 61
75 76 75 75 74 75 73 73 74 73 73 71 71 71 70 69 67 67 67 68 68 69 70 72 73 73 73 72 72 71 71 71 71 71 71 70 69 69 67 66 65 64 64 66 64 63 62 62 62 62 62 63 65 66 66 67 64 59 51 51 52 56 58
76 75 75 75 74 73 73 73 72 71 69 68 69 68 67 67 67 67 66 66 66 69 73 73 73 73 72 71 72 72 72 71 70 71 70 68 67 65 64 65 65 65 64 63 62 62 62 62 61 61 61 62 63 63 62 64 66 60 54 52 51 52 55
73 73 72 72 73 74 74 71 70 69 67 68 69 68 68 68 67 66 67 65 68 72 74 74 73 72 72 71 71 71 71 70 70 69 67 66 66 65 64 64 64 64 64 63 63 62 62 61 60 60 59 60 59 61 62 62 65 62 59 53 50 50 51
70 70 69 70 71 70 70 67 67 67 68 68 68 68 68 67 66 66 66 66 71 73 73 72 72 72 71 71 71 70 69 69 68 66 65 65 65 64 63 63 63 62 62 62 62 60 60 59 60 59 59 59 58 59 60 62 62 62 60 56 50 48 47
68 68 67 67 68 68 69 68 66 66 66 66 67 67 68 68 67 68 67 68 72 73 73 73 72 72 71 70 70 69 68 66 65 65 64 64 64 63 62 63 63 61 62 61 60 59 59 59 59 59 58 58 58 58 58 61 62 61 61 58 53 48 47
66 66 66 66 65 67 67 67 66 66 65 65 67 67 68 68 69 67 66 68 69 70 69 69 69 70 70 69 68 67 65 63 63 63 63 63 63 63 63 63 62 61 60 60 60 59 59 59 58 58 58 58 57 58 59 61 61 60 60 60 58 53 49
65 65 65 65 66 68 67 67 66 66 66 66 66 67 67 67 67 66 66 66 66 69 70 68 68 69 68 68 67 65 64 63 62 61 61 61 61 61 62 61 61 61 60 60 59 59 59 58 58 58 57 58 58 58 59 60 61 59 59 58 56 56 56
63 64 64 64 65 66 66 66 66 66 65 64 65 67 67 67 67 67 67 67 67 71 70 70 69 69 68 68 68 66 65 63 67 63 60 60 61 60 61 60 60 60 60 59 59 58 58 58 58 58 58 58 58 59 58 58 58 57 56 55 54 54 51
62 62 63 63 64 64 65 65 65 64 64 64 64 66 66 67 68 70 69 71 72 70 69 68 70 69 68 68 67 66 67 65 66 62 61 59 55 52 53 55 58 59 59 55 53 56 59 60 58 59 59 60 59 58 58 58 57 56 54 54 53 51 50
62 62 63 63 64 64 65 64 64 64 64 64 64 65 66 66 68 71 73 70 68 66 68 68 69 69 69 67 67 67 66 63 62 61 60 57 53 52 51 48 43 45 54 55 50 45 42 46 58 58 58 56 54 56 59 59 57 50 46 44 43 43 44
63 63 63 64 64 63 64 64 65 65 65 65 66 67 66 66 68 66 67 67 67 68 68 68 67 66 66 65 65 64 65 62 60 60 59 57 54 53 52 50 49 41 42 45 46 43 39 38 40 42 47 56 54 51 48 50 46 43 43 42 42 41 41
64 65 66 66 66 65 65 65 65 66 66 65 65 66 66 65 64 65 67 67 68 68 67 66 66 65 63 61 62 65 63 60 61 61 60 58 55 54 53 51 50 49 43 40 42 42 39 38 41 43 46 50 52 51 51 46 43 41 42 42 41 41 41
MSLP
1008.22 1008.66 1008.82 1008.93 1009.29 1009.41 1009.66 1009.85 1010.02 1010.38 1010.70 1011.05 1011.26 1011.49 1011.82 1012.05 1012.34 1012.70 1013.17 1013.49 1013.82 1014.22 1014.34 1014.34 1014.46 1014.66 1014.90 1015.02 1015.14 1015.38 1015.53 1015.61 1015.73 1015.93 1016.09 1016.29 1016.41 1016.66 1016.85 1016.90 1016.90 1016.93 1016.93 1017.05 1017.14 1017.14 1017.09 1017.02 1017.05 1017.05 1017.05 1017.09 1017.05 1017.02 1016.97 1016.97 1017.05 1017.05 1017.05 1017.09 1017.17 1017.26 1017.29
1008.46 1008.58 1008.70 1008.73 1008.85 1009.02 1009.17 1009.26 1009.53 1009.90 1010.34 1010.61 1010.90 1011.14 1011.38 1011.66 1011.93 1012.38 1012.70 1013.02 1013.34 1013.66 1013.97 1014.09 1014.29 1014.49 1014.61 1014.78 1015.02 1015.29 1015.53 1015.58 1015.61 1015.66 1015.85 1016.09 1016.22 1016.38 1016.46 1016.66 1016.70 1016.82 1016.82 1016.78 1016.78 1016.82 1016.85 1016.90 1016.85 1016.97 1017.02 1016.93 1016.90 1016.82 1016.82 1016.85 1016.90 1016.93 1016.97 1017.02 1017.09 1017.14 1017.17
1008.22 1008.38 1008.38 1008.41 1008.49 1008.70 1008.97 1009.26 1009.38 1009.41 1009.85 1010.26 1010.61 1010.93 1011.05 1011.17 1011.29 1011.61 1012.17 1012.73 1013.17 1013.46 1013.73 1013.93 1014.02 1014.22 1014.38 1014.58 1014.90 1015.17 1015.26 1015.46 1015.61 1015.66 1015.82 1015.97 1016.09 1016.17 1016.26 1016.38 1016.49 1016.58 1016.53 1016.49 1016.53 1016.66 1016.66 1016.73 1016.70 1016.78 1016.82 1016.85 1016.78 1016.73 1016.66 1016.70 1016.70 1016.73 1016.78 1016.82 1016.90 1016.97 1017.02
1007.90 1007.93 1007.82 1007.53 1007.58 1007.85 1008.17 1008.46 1008.82 1009.09 1009.34 1009.53 1009.82 1010.05 1010.46 1010.73 1010.78 1011.05 1011.46 1011.97 1012.66 1013.22 1013.61 1013.70 1013.82 1014.05 1014.22 1014.46 1014.70 1014.90 1015.14 1015.22 1015.29 1015.46 1015.49 1015.58 1015.73 1015.90 1016.09 1016.26 1016.29 1016.34 1016.41 1016.38 1016.38 1016.46 1016.46 1016.49 1016.61 1016.70 1016.66 1016.70 1016.66 1016.58 1016.53 1016.53 1016.53 1016.58 1016.58 1016.66 1016.73 1016.73 1016.73
1007.34 1007.34 1007.70 1007.93 1008.05 1008.26 1008.49 1008.66 1008.78 1008.78 1008.97 1009.05 1009.22 1009.41 1009.66 1010.09 1010.53 1010.90 1011.26 1011.49 1011.90 1012.49 1012.78 1013.05 1013.29 1013.58 1013.85 1014.05 1014.29 1014.53 1014.78 1014.93 1015.14 1015.22 1015.26 1015.26 1015.34 1015.58 1015.82 1016.02 1016.14 1016.22 1016.17 1016.17 1016.26 1016.29 1016.38 1016.46 1016.53 1016.58 1016.58 1016.53 1016.53 1016.49 1016.46 1016.41 1016.41 1016.38 1016.41 1016.46 1016.61 1016.58 1016.58
1007.53 1007.73 1007.82 1007.73 1007.78 1007.90 1007.97 1008.14 1008.17 1008.29 1008.66 1009.05 1009.29 1009.58 1009.78 1010.02 1010.34 1010.70 1010.85 1011.26 1011.70 1012.09 1012.53 1012.93 1013.22 1013.38 1013.70 1013.78 1013.97 1014.29 1014.46 1014.61 1014.73 1014.93 1015.02 1015.09 1015.17 1015.41 1015.53 1015.66 1015.85 1015.97 1016.09 1016.14 1016.09 1016.17 1016.22 1016.26 1016.34 1016.41 1016.46 1016.41 1016.38 1016.38 1016.34 1016.38 1016.34 1016.29 1016.29 1016.34 1016.41 1016.41 1016.46
1007.09 1007.17 1007.29 1007.29 1007.34 1007.58 1007.78 1007.97 1008.02 1008.05 1008.05 1008.17 1008.49 1008.93 1009.49 1009.90 1010.09 1010.26 1010.61 1011.09 1011.38 1011.93 1012.41 1012.73 1012.90 1013.09 1013.34 1013.53 1013.82 1014.05 1014.29 1014.46 1014.61 1014.78 1014.78 1014.90 1014.97 1015.14 1015.22 1015.34 1015.46 1015.70 1015.78 1015.90 1016.05 1016.02 1016.14 1016.17 1016.14 1016.17 1016.22 1016.26 1016.29 1016.29 1016.26 1016.26 1016.29 1016.22 1016.22 1016.26 1016.34 1016.29 1016.22
1006.26 1006.82 1006.73 1006.73 1006.90 1007.05 1007.38 1007.58 1007.66 1007.73 1008.02 1008.38 1008.90 1009.29 1009.58 1009.66 1010.02 1010.38 1010.61 1010.70 1011.05 1011.58 1012.02 1012.34 1012.66 1012.82 1013.05 1013.38 1013.58 1013.78 1013.93 1014.17 1014.34 1014.49 1014.70 1014.82 1014.93 1015.02 1015.14 1015.17 1015.26 1015.38 1015.66 1015.85 1015.78 1015.82 1015.90 1015.97 1015.93 1015.97 1016.05 1016.17 1016.22 1016.17 1016.09 1016.05 1016.05 1016.05 1016.14 1016.26 1016.26 1016.17 1016.05
1005.49 1005.61 1006.09 1006.29 1006.41 1006.66 1006.85 1007.05 1007.26 1007.58 1007.93 1008.29 1008.49 1008.73 1009.02 1009.49 1009.73 1009.93 1010.17 1010.53 1010.85 1011.17 1011.58 1011.78 1012.17 1012.41 1012.78 1013.22 1013.41 1013.53 1013.61 1013.90 1014.17 1014.38 1014.58 1014.70 1014.73 1014.78 1014.85 1014.97 1015.05 1015.22 1015.49 1015.61 1015.61 1015.61 1015.73 1015.78 1015.82 1015.90 1015.93 1016.02 1016.02 1016.05 1016.02 1015.93 1015.90 1015.90 1016.02 1016.09 1016.09 1016.05 1015.97
1005.85 1006.22 1006.17 1005.93 1005.93 1006.14 1006.46 1006.78 1007.09 1007.61 1008.09 1008.41 1008.73 1009.02 1009.17 1009.17 1009.34 1009.66 1009.93 1010.14 1010.49 1010.93 1011.14 1011.49 1011.90 1012.34 1012.70 1012.97 1013.17 1013.29 1013.49 1013.78 1013.90 1014.09 1014.26 1014.38 1014.34 1014.38 1014.46 1014.66 1014.90 1015.02 1015.29 1015.34 1015.41 1015.53 1015.49 1015.53 1015.61 1015.66 1015.73 1015.82 1015.82 1015.85 1015.85 1015.82 1015.78 1015.78 1015.85 1015.90 1015.90 1015.90 1015.85
1005.58 1005.70 1006.09 1006.22 1006.38 1006.53 1006.78 1007.17 1007.53 1007.66 1007.78 1008.02 1008.22 1008.41 1008.66 1008.97 1009.22 1009.38 1009.66 1009.85 1010.17 1010.41 1010.66 1011.02 1011.46 1012.05 1012.41 1012.70 1013.09 1013.26 1013.38 1013.53 1013.61 1013.78 1013.97 1014.09 1014.14 1014.05 1014.09 1014.41 1014.66 1014.82 1015.02 1015.09 1015.22 1015.26 1015.34 1015.38 1015.34 1015.46 1015.53 1015.61 1015.58 1015.61 1015.70 1015.61 1015.58 1015.61 1015.66 1015.70 1015.66 1015.61 1015.61
1005.58 1005.93 1006.02 1006.02 1006.29 1006.66 1006.85 1006.85 1007.02 1007.29 1007.53 1007.70 1007.85 1008.05 1008.29 1008.58 1008.78 1009.02 1009.29 1009.46 1009.53 1010.05 1010.46 1010.78 1011.09 1011.61 1012.14 1012.49 1012.85 1013.05 1013.14 1013.17 1013.38 1013.49 1013.61 1013.78 1013.93 1013.90 1013.85 1014.14 1014.46 1014.66 1014.66 1014.73 1014.90 1014.93 1015.02 1015.05 1015.09 1015.14 1015.22 1015.26 1015.26 1015.26 1015.29 1015.34 1015.34 1015.38 1015.41 1015.46 1015.46 1015.49 1015.49
1005.26 1005.58 1005.73 1005.90 1006.05 1006.09 1006.38 1006.90 1007.05 1006.97 1007.05 1007.14 1007.38 1007.61 1007.85 1008.14 1008.46 1008.70 1009.02 1009.26 1009.29 1009.53 1010.02 1010.38 1010.82 1011.34 1011.85 1012.17 1012.49 1012.73 1012.78 1012.93 1013.09 1013.14 1013.34 1013.53 1013.61 1013.58 1013.66 1013.93 1014.17 1014.38 1014.49 1014.53 1014.66 1014.78 1014.85 1014.85 1014.90 1014.85 1014.90 1014.90 1014.90 1014.93 1014.97 1015.05 1015.09 1015.17 1015.26 1015.29 1015.34 1015.38 1015.41
1004.82 1005.38 1005.58 1005.61 1005.90 1006.26 1006.34 1006.29 1006.49 1006.82 1006.90 1007.05 1007.22 1007.29 1007.53 1007.66 1007.82 1008.14 1008.49 1008.85 1009.02 1009.34 1009.78 1010.14 1010.66 1011.14 1011.58 1011.90 1012.26 1012.38 1012.46 1012.61 1012.66 1012.82 1012.97 1013.17 1013.29 1013.38 1013.41 1013.66 1013.93 1014.09 1014.17 1014.34 1014.53 1014.66 1014.70 1014.70 1014.66 1014.61 1014.66 1014.66 1014.70 1014.70 1014.73 1014.90 1015.02 1015.09 1015.09 1015.09 1015.14 1015.17 1015.26
1004.90 1004.97 1005.34 1005.70 1005.66 1005.66 1005.73 1006.02 1006.22 1006.38 1006.58 1006.70 1006.90 1007.26 1007.38 1007.61 1007.82 1008.02 1008.29 1008.46 1008.70 1009.02 1009.38 1009.70 1010.34 1010.90 1011.26 1011.58 1011.93 1012.14 1012.14 1012.26 1012.38 1012.46 1012.66 1012.90 1013.02 1013.09 1013.22 1013.41 1013.66 1013.85 1013.97 1014.09 1014.22 1014.22 1014.26 1014.26 1014.38 1014.58 1014.66 1014.61 1014.53 1014.46 1014.49 1014.61 1014.70 1014.70 1014.82 1014.90 1014.93 1014.97 1015.02
1004.61 1004.49 1004.82 1005.29 1005.38 1005.34 1005.29 1005.26 1005.41 1005.70 1005.97 1006.38 1006.73 1006.93 1007.22 1007.41 1007.58 1007.70 1007.97 1008.22 1008.38 1008.70 1008.93 1009.41 1010.09 1010.58 1010.93 1011.34 1011.66 1011.73 1011.78 1011.90 1012.09 1012.29 1012.53 1012.78 1012.78 1012.82 1012.97 1013.22 1013.46 1013.58 1013.70 1013.78 1013.82 1013.90 1013.97 1014.09 1014.22 1014.38 1014.46 1014.41 1014.38 1014.38 1014.41 1014.49 1014.46 1014.41 1014.46 1014.49 1014.58 1014.70 1014.73
1004.46 1004.46 1004.49 1004.53 1004.85 1004.93 1004.85 1004.93 1005.02 1005.29 1005.73 1006.02 1006.22 1006.41 1006.58 1006.73 1006.85 1007.09 1007.41 1007.61 1007.90 1008.17 1008.38 1008.85 1009.61 1010.09 1010.53 1010.97 1011.02 1011.14 1011.38 1011.73 1012.05 1012.17 1012.41 1012.41 1012.41 1012.58 1012.85 1013.05 1013.22 1013.29 1013.41 1013.49 1013.58 1013.66 1013.73 1013.93 1014.14 1014.17 1014.09 1014.14 1014.22 1014.29 1014.29 1014.22 1014.17 1014.09 1014.22 1014.29 1014.26 1014.29 1014.41
1004.70 1004.70 1004.58 1004.49 1004.38 1004.41 1004.61 1004.66 1004.93 1005.26 1005.49 1005.61 1005.70 1005.85 1006.09 1006.41 1006.61 1006.85 1007.14 1007.26 1007.58 1007.73 1008.05 1008.58 1009.09 1009.61 1010.05 1010.29 1010.61 1010.93 1011.29 1011.46 1011.61 1011.97 1012.09 1012.14 1012.26 1012.38 1012.61 1012.82 1012.97 1013.05 1013.14 1013.26 1013.38 1013.38 1013.53 1013.78 1013.82 1013.82 1013.82 1013.85 1013.93 1014.02 1013.93 1013.85 1013.70 1013.73 1013.85 1013.97 1014.02 1014.05 1014.17
1004.38 1004.46 1004.46 1004.49 1004.58 1004.53 1004.34 1004.38 1004.46 1004.58 1004.78 1004.97 1005.26 1005.46 1005.41 1005.46 1006.05 1006.46 1006.53 1006.97 1007.05 1007.38 1007.97 1008.34 1008.73 1009.22 1009.73 1009.97 1010.29 1010.66 1011.02 1011.09 1011.41 1011.66 1011.82 1011.85 1011.93 1012.17 1012.49 1012.70 1012.82 1012.85 1012.97 1013.02 1013.02 1013.22 1013.46 1013.49 1013.58 1013.61 1013.58 1013.70 1013.78 1013.78 1013.61 1013.53 1013.29 1013.38 1013.53 1013.61 1013.70 1013.78 1013.93
1003.73 1003.93 1004.14 1004.17 1004.17 1004.17 1003.97 1003.90 1003.97 1004.05 1004.05 1004.26 1004.34 1004.38 1004.41 1004.78 1005.22 1005.46 1005.78 1006.29 1006.78 1007.22 1007.70 1008.17 1008.70 1008.93 1009.34 1009.73 1010.05 1010.29 1010.70 1010.93 1011.14 1011.41 1011.49 1011.58 1011.82 1012.09 1012.38 1012.58 1012.58 1012.53 1012.61 1012.78 1013.02 1013.17 1013.26 1013.29 1013.38 1013.41 1013.49 1013.58 1013.58 1013.49 1013.34 1013.26 1013.09 1013.14 1013.14 1013.17 1013.26 1013.38 1013.61
1003.29 1003.26 1003.26 1003.49 1003.78 1003.97 1004.09 1003.93 1003.82 1003.90 1004.17 1004.29 1004.17 1004.29 1004.70 1005.22 1005.34 1005.70 1006.09 1006.38 1006.90 1007.17 1007.66 1008.02 1008.38 1008.85 1009.22 1009.66 1009.97 1010.46 1010.78 1010.82 1010.93 1011.14 1011.34 1011.53 1011.73 1012.02 1012.22 1012.29 1012.34 1012.49 1012.61 1012.78 1012.90 1012.93 1013.02 1013.09 1013.26 1013.26 1013.26 1013.29 1013.26 1013.26 1013.17 1013.02 1012.90 1012.93 1012.90 1012.97 1013.05 1013.17 1013.38
1003.02 1002.93 1003.02 1002.90 1003.14 1003.41 1003.46 1003.66 1003.58 1003.66 1003.70 1003.46 1003.90 1004.22 1004.38 1004.78 1005.02 1005.53 1006.02 1006.26 1006.61 1007.14 1007.41 1007.85 1008.34 1008.85 1009.26 1009.66 1010.09 1010.41 1010.49 1010.66 1010.82 1010.97 1011.17 1011.41 1011.66 1011.90 1012.02 1012.09 1012.17 1012.38 1012.49 1012.66 1012.66 1012.61 1012.73 1012.85 1012.85 1012.97 1013.02 1012.97 1012.97 1012.97 1012.97 1012.73 1012.66 1012.73 1012.78 1012.85 1012.97 1013.14 1013.22
1001.85 1002.14 1002.09 1002.17 1002.17 1002.38 1002.49 1002.49 1002.78 1002.78 1002.93 1003.38 1003.61 1003.97 1004.26 1004.58 1004.93 1005.38 1006.02 1006.49 1006.85 1007.26 1007.82 1008.22 1009.02 1009.53 1010.05 1010.41 1010.05 1010.17 1010.26 1010.38 1010.58 1010.82 1011.02 1011.17 1011.46 1011.66 1011.73 1011.82 1012.02 1012.26 1012.41 1012.70 1012.73 1012.85 1012.93 1012.90 1012.93 1012.90 1012.93 1012.90 1012.82 1012.85 1012.73 1012.53 1012.41 1012.46 1012.53 1012.66 1012.78 1012.90 1012.93
1001.49 1001.38 1001.41 1001.53 1001.93 1001.85 1002.22 1002.38 1002.46 1002.66 1002.93 1003.29 1003.53 1003.58 1003.93 1004.38 1004.73 1005.26 1005.90 1006.58 1007.14 1007.46 1007.78 1007.73 1008.34 1008.73 1008.93 1009.17 1009.41 1009.66 1009.93 1010.14 1010.26 1010.49 1010.73 1010.97 1011.09 1011.14 1011.17 1011.49 1012.05 1012.41 1012.46 1012.66 1012.70 1012.70 1012.58 1012.61 1012.78 1012.82 1012.78 1012.82 1012.73 1012.66 1012.58 1012.29 1012.14 1012.26 1012.38 1012.49 1012.61 1012.58 1012.70
1001.38 1001.09 1000.93 1000.93 1001.26 1001.66 1002.02 1002.29 1002.41 1002.73 1003.09 1003.46 1003.82 1003.85 1003.93 1004.14 1004.49 1005.22 1006.14 1006.78 1007.29 1007.70 1008.17 1008.29 1008.53 1008.58 1008.58 1008.66 1008.90 1009.34 1009.70 1009.78 1009.85 1010.05 1010.29 1010.46 1010.46 1010.53 1011.14 1011.49 1011.38 1011.14 1011.34 1011.58 1011.82 1011.97 1012.02 1012.22 1012.66 1013.09 1013.70 1014.02 1013.78 1012.61 1012.34 1012.14 1012.14 1012.29 1012.41 1012.53 1012.49 1012.53 1012.61
1001.38 1001.17 1001.14 1001.17 1001.17 1000.97 1001.46 1002.17 1002.78 1003.22 1003.38 1003.53 1003.53 1003.53 1003.97 1004.46 1004.97 1005.58 1006.26 1007.02 1007.22 1007.53 1007.70 1007.82 1007.97 1007.90 1007.93 1008.26 1008.70 1009.09 1009.22 1009.26 1009.46 1009.66 1009.85 1009.93 1010.17 1010.49 1010.53 1010.61 1010.93 1011.26 1011.46 1011.58 1011.70 1011.85 1011.97 1012.09 1012.17 1012.09 1012.09 1012.29 1012.73 1012.90 1012.46 1012.14 1012.14 1012.34 1012.41 1012.38 1012.34 1012.38 1012.41
1000.90 1000.70 1000.97 1001.34 1001.46 1001.70 1002.14 1002.46 1002.70 1003.29 1003.78 1004.14 1004.58 1005.29 1006.17 1007.29 1008.26 1008.41 1008.82 1008.97 1007.85 1007.41 1007.49 1007.41 1007.46 1007.66 1007.90 1008.17 1008.49 1008.66 1008.78 1008.93 1009.14 1009.41 1009.61 1009.70 1009.82 1009.97 1010.49 1010.78 1011.05 1011.14 1011.29 1011.73 1011.90 1012.02 1012.09 1012.22 1012.34 1012.46 1012.46 1012.53 1012.46 1012.34 1012.70 1012.85 1012.58 1012.38 1012.17 1012.09 1012.17 1012.26 1012.26
1001.53 1001.61 1001.53 1001.66 1002.02 1002.26 1002.66 1002.82 1003.05 1003.26 1003.38 1003.41 1003.66 1004.05 1004.78 1005.78 1007.53 1008.58 1009.14 1010.09 1010.05 1008.46 1007.17 1007.09 1007.34 1007.49 1007.82 1008.05 1008.17 1008.29 1008.53 1008.78 1009.05 1009.22 1009.34 1009.53 1009.82 1010.29 1010.61 1010.58 1010.61 1010.85 1011.26 1011.66 1011.70 1011.66 1011.61 1011.73 1012.02 1012.29 1012.38 1012.46 1012.22 1012.02 1012.34 1012.66 1012.90 1012.85 1012.29 1012.05 1012.05 1012.09 1012.02
1002.02 1002.22 1002.38 1002.41 1002.58 1002.46 1002.41 1003.09 1003.46 1003.97 1004.41 1004.53 1004.66 1004.93 1005.17 1005.73 1006.85 1007.58 1008.22 1009.46 1009.29 1008.26 1007.29 1007.17 1007.29 1007.46 1007.66 1007.78 1007.97 1008.14 1008.38 1008.70 1008.85 1009.05 1009.34 1009.58 1009.73 1010.05 1010.46 1010.66 1010.70 1010.73 1011.02 1011.29 1011.38 1011.49 1011.61 1011.73 1011.93 1012.17 1012.26 1012.26 1012.05 1011.73 1011.58 1011.61 1011.53 1011.82 1012.02 1012.05 1012.05 1011.93 1011.97
1002.58 1002.49 1002.73 1002.93 1002.85 1003.02 1003.05 1003.73 1004.09 1004.38 1004.61 1004.73 1005.02 1005.29 1005.53 1005.85 1006.70 1007.38 1008.26 1008.73 1008.49 1007.93 1007.22 1007.14 1007.26 1007.34 1007.49 1007.66 1007.82 1008.09 1008.41 1008.49 1008.66 1008.93 1009.17 1009.41 1009.73 1010.05 1010.41 1010.53 1010.49 1010.58 1010.66 1010.73 1011.02 1011.34 1011.58 1011.73 1011.93 1012.14 1012.02 1011.82 1011.82 1011.78 1011.70 1011.58 1011.66 1011.61 1011.73 1011.93 1011.93 1011.90 1011.90
1002.97 1003.05 1003.09 1003.14 1003.34 1003.29 1003.17 1003.46 1004.09 1004.58 1004.90 1005.09 1005.14 1005.38 1005.78 1006.05 1006.66 1007.26 1007.78 1008.26 1008.26 1007.29 1006.82 1006.82 1006.93 1007.09 1007.29 1007.53 1007.70 1007.97 1008.22 1008.49 1008.70 1008.93 1009.14 1009.38 1009.58 1009.97 1010.26 1010.29 1010.29 1010.58 1010.66 1010.73 1010.97 1011.22 1011.38 1011.41 1011.61 1011.70 1011.66 1011.70 1011.66 1011.58 1011.58 1011.49 1011.46 1011.46 1011.61 1011.70 1011.66 1011.70 1011.73
1003.41 1003.61 1003.66 1003.61 1003.66 1003.58 1003.70 1004.02 1004.29 1004.61 1005.09 1005.29 1005.17 1005.38 1005.70 1006.05 1006.49 1007.02 1007.14 1008.22 1008.02 1006.97 1007.02 1007.41 1007.58 1007.09 1007.09 1007.17 1007.46 1007.85 1008.17 1008.49 1008.85 1008.97 1009.09 1009.22 1009.34 1009.41 1009.58 1009.73 1010.14 1010.34 1010.53 1010.73 1010.90 1011.09 1011.22 1011.26 1011.41 1011.41 1011.49 1011.49 1011.49 1011.49 1011.34 1011.22 1011.09 1011.17 1011.38 1011.41 1011.41 1011.49 1011.58
1003.66 1003.78 1003.78 1003.61 1003.82 1003.82 1003.93 1004.09 1004.49 1004.82 1004.97 1005.34 1005.41 1005.41 1005.58 1005.85 1006.14 1006.26 1006.61 1008.78 1008.29 1006.78 1007.05 1007.58 1008.70 1007.73 1007.17 1007.26 1007.49 1007.82 1008.02 1008.22 1008.66 1008.93 1009.09 1009.17 1009.34 1009.41 1009.49 1009.66 1009.82 1010.05 1010.34 1010.58 1010.78 1011.02 1011.09 1011.22 1011.29 1011.38 1011.38 1011.34 1011.34 1011.29 1011.17 1010.93 1010.90 1011.02 1011.14 1011.17 1011.26 1011.29 1011.38
1004.29 1004.29 1004.38 1004.29 1004.22 1004.17 1004.17 1004.26 1004.49 1004.90 1005.14 1005.41 1005.38 1005.22 1005.29 1005.66 1006.09 1006.22 1006.29 1007.29 1008.38 1006.78 1007.05 1007.61 1007.38 1007.09 1007.34 1007.53 1007.66 1007.82 1007.93 1008.09 1008.34 1008.78 1009.17 1009.29 1009.38 1009.49 1009.61 1009.70 1009.73 1009.90 1010.09 1010.34 1010.58 1010.82 1011.02 1011.02 1011.14 1011.17 1011.14 1011.17 1011.02 1010.93 1010.82 1010.73 1010.73 1010.90 1010.97 1011.05 1011.09 1011.22 1011.38
1004.58 1004.61 1004.70 1004.66 1004.61 1004.53 1004.49 1004.53 1004.82 1005.09 1005.29 1005.53 1005.38 1005.17 1005.29 1005.66 1006.09 1005.97 1005.82 1006.41 1006.97 1006.78 1006.78 1006.82 1006.82 1007.02 1007.26 1007.53 1007.66 1007.82 1007.82 1007.93 1008.34 1008.73 1009.05 1009.38 1009.66 1010.02 1010.09 1009.93 1009.82 1009.93 1010.02 1010.34 1010.53 1010.53 1010.58 1010.66 1010.78 1010.73 1010.66 1010.58 1010.53 1010.58 1010.58 1010.53 1010.61 1010.61 1010.78 1010.85 1011.02 1011.09 1011.14
1004.61 1004.70 1004.85 1004.82 1004.78 1004.78 1004.82 1004.93 1004.93 1005.17 1005.41 1005.58 1005.53 1005.58 1005.61 1005.66 1005.70 1005.70 1005.90 1006.41 1006.53 1006.41 1006.38 1006.46 1006.66 1006.90 1007.17 1007.29 1007.34 1007.53 1007.85 1008.09 1008.34 1008.58 1008.90 1009.26 1009.53 1010.05 1010.70 1011.29 1011.34 1011.14 1010.61 1010.53 1011.22 1011.34 1011.17 1010.90 1010.38 1010.26 1010.17 1010.22 1010.17 1010.26 1010.17 1010.22 1010.26 1010.53 1010.82 1011.02 1011.17 1011.38 1011.38
1004.53 1004.78 1004.90 1004.90 1004.97 1005.05 1005.02 1005.02 1005.05 1005.05 1005.14 1005.17 1005.26 1005.46 1005.73 1005.85 1005.90 1006.05 1006.09 1006.26 1006.26 1006.17 1006.58 1006.93 1006.97 1007.26 1007.38 1007.41 1007.41 1007.41 1007.58 1007.90 1008.26 1008.53 1008.70 1009.09 1009.38 1009.70 1009.85 1010.53 1011.26 1011.53 1011.66 1011.66 1011.66 1011.46 1011.09 1011.02 1010.66 1010.49 1010.29 1010.09 1010.02 1010.46 1010.58 1010.38 1010.41 1010.61 1010.93 1011.14 1011.29 1011.38 1011.38
1004.49 1004.49 1004.61 1004.70 1004.70 1004.85 1005.02 1005.02 1004.97 1004.82 1004.82 1004.97 1005.09 1005.22 1005.38 1005.73 1005.90 1005.93 1006.05 1005.78 1005.73 1006.34 1006.85 1006.93 1006.97 1007.29 1007.34 1007.29 1007.26 1007.22 1007.38 1007.73 1008.05 1008.38 1008.66 1009.09 1009.38 1009.53 1009.73 1009.93 1010.26 1010.97 1011.58 1011.73 1011.58 1011.34 1011.05 1010.78 1010.53 1010.41 1010.41 1010.34 1010.22 1010.26 1010.61 1010.97 1011.09 1011.14 1011.17 1011.26 1011.38 1011.38 1011.49
Wind_Speed
17 17 15 15 15 16 17 17 17 16 16 15 16 17 16 14 14 13 12 13 13 11 9 10 10 8 9 8 7 6 6 7 6 7 6 6 5 6 5 4 5 5 5 6 5 5 5 4 4 4 3 3 4 3 3 3 3 4 3 3 2 3 3
15 15 15 15 15 16 16 17 17 15 15 15 15 17 15 16 14 14 14 13 13 14 12 11 10 9 9 8 7 6 6 7 6 6 6 6 5 6 6 6 5 5 5 5 5 4 3 5 4 4 4 4 4 4 3 3 4 4 4 3 4 3 3
13 14 15 15 15 14 16 14 15 16 16 15 14 15 16 17 16 17 15 14 13 12 10 11 11 11 9 9 8 7 7 7 6 7 7 7 6 6 4 5 5 5 6 5 3 4 4 5 4 4 4 4 4 4 4 4 3 4 4 4 4 5 3
14 16 17 18 17 16 17 18 19 16 16 17 18 19 17 18 16 15 16 16 15 13 13 11 11 10 10 10 9 8 8 8 8 7 7 7 7 5 5 4 4 4 4 4 4 4 5 4 4 4 5 4 4 4 4 4 3 3 4 4 4 4 4
14 14 13 13 13 12 13 14 16 17 18 18 18 18 18 17 15 14 13 15 16 16 15 15 12 10 9 9 8 8 9 9 7 7 7 6 6 6 5 5 5 5 5 4 3 4 4 4 4 5 4 4 4 4 4 4 3 3 3 3 4 4 5
12 12 12 14 13 14 15 16 18 18 18 18 17 16 15 16 14 16 15 15 14 12 11 10 11 10 11 10 8 8 7 7 8 7 7 7 7 7 7 6 6 4 4 5 3 4 4 4 5 5 5 4 5 4 4 3 4 3 4 3 4 4 5
12 13 13 13 14 14 14 15 16 16 17 17 16 13 13 14 17 16 14 14 14 15 14 13 12 11 10 9 9 9 9 9 7 8 7 7 7 7 6 5 4 5 5 3 4 4 4 5 6 5 5 4 4 5 4 4 4 3 3 3 4 4 4
13 13 13 14 13 14 14 15 16 15 13 11 12 13 15 14 13 13 15 15 14 13 13 14 12 12 10 8 9 10 10 9 8 8 6 7 6 6 6 5 5 5 4 5 6 4 5 6 5 4 4 4 5 5 5 4 4 4 3 4 4 4 3
15 15 16 15 14 14 15 16 16 16 16 16 17 17 16 14 14 15 15 14 13 15 14 14 12 11 10 9 9 11 10 9 8 7 7 7 7 7 6 5 5 4 5 6 5 4 5 6 5 5 5 5 5 5 5 5 5 4 4 4 4 5 4
9 7 8 12 14 13 13 13 13 12 13 13 12 12 14 15 14 13 13 14 14 15 16 14 12 10 9 9 9 9 9 9 8 9 9 9 8 8 7 6 6 5 5 5 5 5 5 5 6 5 6 6 6 5 5 5 5 4 5 6 6 5 5
10 11 9 8 10 10 9 9 12 13 14 15 15 14 14 13 14 14 14 14 14 14 14 13 11 11 11 10 10 10 10 10 10 10 9 9 7 8 7 7 7 4 5 5 5 5 5 5 5 5 5 6 6 5 5 6 6 5 5 5 5 6 5
10 9 11 11 9 10 14 14 13 12 13 13 14 15 14 14 14 13 13 14 14 13 14 13 12 12 11 10 11 10 11 11 9 10 10 9 8 8 8 7 6 5 5 5 5 5 5 5 4 4 5 5 5 5 5 5 5 6 6 6 6 5 5
11 11 11 12 12 12 10 10 14 16 15 15 15 14 14 14 14 14 13 14 14 13 13 12 12 12 12 11 12 11 12 11 10 10 9 8 9 7 7 7 6 6 6 5 5 5 4 4 4 3 4 5 4 4 5 5 5 6 6 5 5 5 5
11 10 9 9 9 11 14 16 15 14 15 14 13 13 13 13 14 15 15 15 14 13 12 11 12 12 12 12 11 12 12 10 10 9 9 8 8 7 7 6 6 6 6 6 6 6 5 4 4 3 4 5 5 5 5 4 4 4 4 5 6 6 5
12 12 12 12 13 14 15 15 14 15 14 14 13 14 14 13 12 11 11 12 12 12 14 12 12 12 13 12 12 12 11 10 9 8 8 9 8 7 7 7 6 5 6 6 5 4 4 4 3 4 4 4 5 4 3 3 4 4 4 5 6 6 6
12 13 12 13 14 14 14 16 16 16 16 14 14 15 14 13 13 14 14 14 13 13 13 12 13 13 13 13 12 12 11 10 8 8 8 8 9 8 7 6 6 6 6 5 5 4 4 3 3 4 5 5 4 4 3 4 4 5 9 9 7 7 6
12 12 12 13 12 13 14 14 14 14 15 15 16 16 16 15 15 14 14 14 14 14 14 14 14 14 13 14 14 13 11 9 9 9 10 10 8 6 6 7 7 6 6 5 5 5 4 4 5 5 5 5 4 4 5 5 4 9 10 12 13 8 6
10 10 11 12 12 12 13 14 13 13 15 15 16 16 15 14 13 13 14 13 14 13 13 14 15 15 14 14 13 11 11 11 10 9 9 8 8 7 7 6 6 6 6 6 6 6 5 5 6 5 5 5 5 5 6 6 7 11 11 12 13 11 7
8 9 9 10 10 11 12 13 13 15 15 15 15 15 16 16 14 15 14 13 13 11 13 15 15 14 14 13 12 12 12 11 10 10 9 9 8 7 6 7 7 7 7 8 7 5 6 7 5 6 6 6 6 7 7 6 9 10 10 11 12 13 10
6 8 7 7 9 11 12 11 10 12 14 16 16 18 17 16 17 15 13 13 11 14 14 14 13 14 14 12 12 11 10 10 10 10 9 8 7 7 7 7 9 8 7 6 5 6 7 6 6 6 6 6 7 7 7 6 8 10 11 11 12 11 9
7 8 9 10 9 8 7 9 9 9 9 9 12 11 9 9 8 8 9 10 11 11 13 14 14 12 11 10 9 7 7 9 9 10 8 7 7 7 7 8 7 7 6 6 7 8 8 7 6 6 6 7 7 7 7 6 9 11 11 9 9 8 7
9 9 8 8 10 11 10 9 11 11 12 11 9 10 11 12 11 12 12 10 13 12 14 13 12 10 7 6 5 6 8 8 9 9 8 7 7 7 8 8 8 8 5 5 6 6 5 5 6 6 7 7 7 7 7 7 10 11 10 9 8 8 5
9 9 9 9 10 12 12 12 11 12 9 9 10 11 12 10 12 12 11 11 10 10 10 12 9 6 6 4 8 9 8 8 9 8 8 7 7 8 9 9 8 6 3 4 5 4 5 5 5 5 6 6 6 7 7 7 8 12 12 11 11 7 5
6 7 7 8 6 5 7 8 7 5 8 10 11 12 11 12 13 14 13 12 11 12 13 15 14 9 12 10 9 9 8 9 9 9 8 7 9 10 10 4 2 1 1 5 5 6 6 5 5 6 6 7 8 7 8 8 8 12 11 12 11 8 5
8 8 8 9 10 8 7 8 9 8 6 7 10 9 11 14 15 14 13 12 11 11 11 10 11 8 9 10 10 9 9 9 9 9 9 9 11 9 3 5 8 8 7 7 7 7 5 3 1 5 8 10 12 12 10 8 6 8 10 9 9 6 4
4 3 2 3 4 6 6 5 6 6 9 12 12 11 11 11 12 12 13 11 12 14 15 13 11 11 11 10 10 9 9 8 8 8 9 10 5 4 8 7 5 5 6 5 6 5 1 3 5 7 10 8 10 12 9 7 4 7 9 9 9 8 5
3 6 8 5 4 5 6 5 7 7 6 6 9 12 14 16 12 9 8 2 7 12 13 13 11 10 10 9 8 8 8 7 8 8 6 6 8 6 4 4 5 4 4 1 1 0 2 3 2 4 5 5 6 5 5 6 3 5 10 9 9 9 7
6 4 4 4 6 6 7 8 9 10 10 10 14 14 14 15 12 7 3 2 8 11 14 10 10 9 8 7 8 8 7 7 4 5 6 5 5 6 6 6 6 5 5 4 4 5 6 5 4 4 6 4 2 3 2 4 8 6 7 9 10 11 9
4 5 5 6 6 4 8 7 6 7 6 6 8 9 12 14 12 10 8 8 17 15 8 9 9 8 7 7 7 7 5 5 7 6 5 5 6 7 6 4 5 6 6 7 7 7 7 5 3 5 5 6 4 4 5 6 8 10 8 10 11 12 9
6 6 6 6 5 5 10 9 8 9 7 8 8 8 10 13 12 11 9 14 16 9 6 6 7 6 7 6 6 4 5 6 6 6 6 7 7 6 7 6 5 5 6 6 6 7 7 6 6 6 6 6 5 3 4 5 6 7 11 10 12 9 10
4 5 5 6 6 5 7 11 10 9 9 7 9 8 8 9 11 10 11 12 12 8 7 8 7 7 7 6 6 6 6 5 6 6 6 6 8 8 7 7 7 6 5 6 5 6 7 7 6 7 6 5 5 5 4 5 6 5 9 11 9 9 9
5 4 5 5 5 5 7 9 9 10 10 7 7 9 8 8 8 9 4 5 4 4 7 8 3 5 6 5 5 7 7 7 6 6 7 8 7 9 9 9 7 7 5 6 6 7 7 7 7 6 5 6 5 5 6 7 5 6 6 7 8 6 9
3 3 4 6 5 7 8 9 9 10 9 9 5 9 10 11 10 10 10 1 12 3 6 10 10 4 5 6 7 7 8 8 7 6 6 6 6 4 5 5 5 6 6 6 6 6 6 6 6 6 5 6 6 5 6 6 5 5 6 6 6 4 3
2 2 2 2 3 3 5 6 9 9 9 9 6 8 10 10 10 11 11 12 12 4 6 10 6 5 5 7 7 7 8 7 10 9 7 5 5 5 4 4 4 6 7 7 7 6 6 6 6 6 6 6 6 6 5 5 5 5 6 6 4 2 1
3 2 2 3 2 3 5 6 7 7 9 7 5 7 8 8 8 8 10 8 10 7 7 4 3 4 6 6 6 6 6 7 7 7 7 6 4 3 2 0 1 2 3 0 1 2 5 5 5 5 6 6 6 5 5 3 6 6 4 3 4 3 2
3 4 3 1 3 4 5 4 7 9 9 7 4 4 6 7 5 6 7 5 3 3 4 4 6 6 6 6 6 5 5 5 5 6 6 7 6 5 4 6 5 4 2 0 4 4 1 3 5 3 3 4 3 2 6 5 3 7 8 6 5 3 3
5 4 4 4 5 5 7 7 7 9 9 9 7 7 4 4 6 5 3 2 3 4 2 1 4 3 4 4 5 5 6 5 5 5 5 5 6 5 5 3 4 8 8 6 3 3 4 3 7 7 7 5 4 1 2 4 8 9 7 4 1 2 3
4 5 7 7 8 8 8 8 8 10 11 7 6 5 7 6 4 3 2 3 5 6 5 3 5 5 4 3 3 4 3 5 5 5 5 4 4 5 5 5 4 2 4 4 4 5 5 6 6 1 1 1 3 5 2 4 6 6 3 2 3 5 5
Wind_Direction
186 187 188 185 186 186 185 184 181 181 180 179 180 178 176 174 174 171 174 177 180 175 182 175 173 170 173 176 172 173 178 172 163 165 163 170 167 160 165 181 167 181 176 177 200 195 214 207 202 208 202 204 203 212 217 214 208 217 223 222 200 204 202
189 187 184 187 190 189 186 183 181 179 178 180 179 178 176 176 172 174 177 178 180 179 181 180 174 178 175 173 171 175 177 175 171 164 159 161 163 169 172 183 177 187 185 195 194 212 197 212 198 200 206 213 214 212 212 206 206 212 213 204 197 214 205
187 185 187 190 190 186 183 182 182 180 178 178 177 177 180 179 178 176 174 176 180 181 180 182 180 178 175 171 173 183 179 174 171 161 162 167 175 182 179 172 182 177 197 196 189 196 199 211 212 205 202 216 232 235 228 231 222 215 209 202 207 212 213
185 189 190 192 190 184 182 181 181 181 180 179 181 182 180 181 179 176 174 176 176 178 181 186 182 179 176 175 179 179 179 178 173 171 171 169 178 181 168 184 184 191 185 202 198 196 206 199 206 208 215 211 229 235 241 240 249 236 222 206 213 214 219
189 189 187 192 188 184 183 182 182 181 183 185 185 183 181 178 175 175 177 178 177 180 184 183 183 180 179 177 179 178 178 177 177 177 177 178 177 168 174 180 188 189 201 222 223 206 201 196 204 209 222 213 220 226 231 239 241 236 231 201 208 216 220
179 181 188 191 189 186 185 184 183 183 183 183 184 184 182 177 176 179 179 176 179 178 177 180 182 180 181 184 175 174 173 180 176 180 179 181 167 171 173 176 178 195 208 218 210 208 204 194 200 206 217 220 216 218 219 222 232 217 218 203 207 213 223
178 186 189 190 187 186 184 184 186 187 186 186 182 178 173 176 182 182 176 178 176 174 176 182 185 181 186 178 178 170 179 179 178 182 184 175 170 168 175 177 185 199 213 202 215 208 207 209 213 215 217 225 221 217 212 213 234 241 233 223 228 231 228
177 187 191 187 188 185 183 184 186 187 184 176 173 176 180 182 178 177 181 182 177 174 180 182 184 184 181 178 176 179 179 179 180 179 178 171 172 171 182 190 195 205 199 209 228 206 211 218 228 223 219 224 230 225 217 213 215 233 232 230 227 235 224
187 180 184 189 186 183 182 183 183 182 178 179 182 184 181 177 181 183 182 178 180 177 182 184 185 182 174 173 178 182 177 173 178 176 178 173 179 180 184 199 212 206 206 218 229 222 217 228 232 230 225 222 228 228 224 218 213 221 218 221 217 223 230
172 177 185 186 186 182 181 182 180 178 182 182 182 178 180 184 184 181 181 182 179 182 181 181 180 177 172 176 182 176 170 175 176 177 181 185 187 186 185 198 216 212 206 221 227 230 235 226 227 229 227 228 234 227 225 221 217 215 217 219 217 219 220
175 177 172 170 179 178 171 169 177 184 183 183 184 184 182 181 183 182 183 181 183 185 181 179 172 174 179 178 176 177 176 179 179 183 187 193 195 191 183 197 216 208 208 223 231 230 230 236 228 226 225 227 233 230 224 219 211 214 222 224 221 213 209
176 169 175 177 169 166 177 183 183 183 186 187 185 184 184 183 184 183 182 186 183 178 178 179 172 177 177 177 177 182 183 184 184 189 192 192 193 196 188 197 207 204 218 209 212 213 204 203 208 202 210 214 212 206 209 212 213 215 221 220 219 216 212
174 177 175 174 176 179 175 175 186 189 188 188 187 186 184 183 183 182 182 184 184 181 177 175 173 174 174 180 182 184 189 184 189 191 190 193 197 192 190 200 200 199 205 194 193 185 195 207 202 209 180 190 178 186 197 210 218 223 228 225 218 212 209
169 176 180 179 176 172 180 189 188 189 191 190 190 187 185 186 184 182 181 184 182 177 175 174 171 173 176 180 185 191 192 189 192 190 189 192 193 191 194 197 198 196 191 181 184 188 192 205 206 211 178 188 192 202 200 205 220 230 232 225 215 209 215
172 180 184 182 188 186 187 186 189 191 191 192 186 185 185 185 185 182 185 183 179 176 179 171 170 173 177 183 187 193 193 191 192 189 190 192 193 195 201 203 201 192 185 185 189 191 195 205 197 188 211 225 217 223 221 214 231 234 218 215 218 212 220
179 188 182 187 190 194 193 192 190 190 189 186 185 186 184 185 185 183 182 183 180 178 176 166 173 175 182 185 187 193 193 189 188 189 195 197 195 199 201 203 201 193 192 191 193 197 204 210 220 206 214 228 239 242 233 228 228 232 222 211 206 212 221
182 187 194 194 192 193 198 197 194 190 186 187 186 186 186 187 186 183 183 182 181 180 175 169 173 179 181 186 191 193 189 181 192 194 195 202 198 193 193 197 191 190 192 195 198 201 207 203 217 226 224 222 234 237 227 230 232 233 224 220 219 214 218
176 187 193 201 201 199 199 198 191 186 190 191 191 188 186 186 186 181 185 182 181 179 169 171 175 179 184 188 189 186 188 196 192 191 199 193 197 194 195 188 190 192 196 199 206 212 204 213 218 223 233 235 234 230 229 231 236 238 235 228 230 228 223
186 189 199 199 202 209 206 198 193 191 192 190 189 190 193 187 181 187 183 177 180 167 169 175 178 179 182 187 184 183 190 194 193 196 195 197 195 193 187 193 199 202 202 208 207 199 208 218 216 227 236 237 236 236 235 233 240 242 239 235 233 231 222
185 197 204 210 210 207 209 203 198 197 193 189 191 193 193 186 187 187 179 173 166 167 172 170 176 180 182 181 183 182 187 192 192 197 200 195 190 186 190 197 208 209 208 204 200 207 217 216 218 228 235 235 233 236 241 236 242 231 230 226 225 225 213
175 192 196 202 207 212 209 206 201 198 198 202 197 191 176 183 179 164 166 168 164 162 161 172 174 176 173 171 168 167 191 191 192 196 196 190 184 183 195 203 213 211 207 199 205 211 215 215 219 228 230 234 232 234 238 241 227 218 214 213 217 218 203
186 175 180 191 192 203 202 200 198 195 200 196 180 179 179 177 170 167 172 166 161 163 164 167 167 162 150 145 140 183 194 190 193 193 189 183 181 187 201 209 210 213 204 208 222 228 223 228 222 226 228 228 230 229 238 245 226 210 210 210 214 194 194
182 187 183 195 187 195 200 199 199 203 191 177 176 174 177 168 167 164 154 158 152 143 139 129 125 120 121 189 194 206 200 194 190 192 186 183 181 199 208 211 214 217 197 217 233 237 238 237 232 234 232 235 231 231 242 251 224 202 200 203 202 185 193
200 190 191 184 207 210 198 200 202 184 173 175 178 177 165 163 166 161 158 145 139 143 153 156 159 160 169 198 209 208 201 194 189 191 185 176 196 206 215 200 68 67 188 220 228 232 230 231 240 244 240 239 243 237 240 247 221 199 198 202 195 184 187
188 189 188 178 174 192 200 195 182 170 158 160 171 172 167 170 165 157 148 142 142 132 136 173 168 181 187 201 208 208 199 192 188 189 185 190 207 207 167 135 180 200 196 207 213 222 229 238 324 13 350 332 313 275 250 245 220 199 197 196 186 182 191
131 128 152 158 178 174 167 146 120 138 160 174 182 173 169 161 155 151 144 142 141 152 169 186 190 197 201 204 202 200 194 188 190 191 193 204 193 146 169 176 169 199 209 214 211 225 177 128 169 201 225 210 243 272 271 245 206 188 191 182 183 193 172
150 153 152 147 142 114 113 131 140 132 106 73 64 57 46 33 27 56 32 336 171 163 181 195 197 193 199 198 194 192 191 190 192 194 186 175 187 175 112 109 129 140 161 155 78 210 248 247 252 251 260 257 281 292 328 322 290 205 185 182 187 191 174
92 71 62 72 75 84 93 104 114 122 129 134 127 123 122 127 141 140 119 257 262 221 203 197 194 194 193 188 192 193 193 187 166 163 174 173 146 121 123 148 154 152 131 159 187 218 239 232 224 224 245 218 198 111 115 319 319 268 221 198 191 190 187
97 89 84 95 93 111 120 112 105 92 80 72 86 100 116 132 146 163 172 202 231 230 205 190 187 187 187 187 188 194 177 149 158 160 151 157 155 143 152 142 144 158 165 198 203 212 221 218 193 202 222 215 217 186 171 205 238 227 212 208 199 192 190
84 92 77 55 74 98 94 91 95 100 99 98 103 109 130 144 156 165 172 221 241 229 193 176 175 172 176 182 186 164 140 153 155 150 154 154 153 134 136 158 166 173 201 200 199 202 214 208 200 198 209 220 222 215 228 252 257 225 209 201 197 184 191
83 101 107 103 102 112 115 124 125 117 104 101 104 113 128 150 154 154 176 226 238 204 178 178 174 175 172 172 175 158 145 133 140 147 149 150 147 150 160 178 185 190 201 186 187 195 206 216 202 209 209 209 223 231 228 234 237 222 211 194 175 184 191
80 89 98 109 116 120 119 114 115 117 113 104 113 117 125 129 151 156 121 359 291 83 71 29 343 153 164 165 147 137 137 129 131 138 149 159 169 172 181 183 185 190 188 185 192 198 209 219 212 221 219 215 219 217 234 240 222 202 188 185 181 189 196
124 131 134 138 147 137 128 127 125 126 121 111 117 122 125 121 118 114 107 42 288 104 94 126 227 191 137 143 141 139 140 142 146 152 162 169 173 173 176 175 175 179 183 189 194 200 212 217 213 219 219 230 230 229 228 230 205 187 184 179 171 168 167
22 41 43 77 107 119 119 124 130 128 121 119 129 128 131 133 132 136 140 144 242 216 171 184 190 154 151 140 146 152 156 157 169 159 166 171 169 169 176 189 175 178 190 194 193 198 217 213 216 213 214 229 237 238 238 220 194 185 184 186 173 136 63
45 59 64 83 82 109 129 131 122 124 121 125 138 128 129 137 148 153 140 163 211 183 170 160 152 124 145 157 150 169 167 166 157 153 149 129 86 53 40 8 174 192 214 58 40 231 226 220 220 213 216 219 228 230 242 227 208 213 173 158 146 158 159
97 102 96 95 95 102 102 104 124 126 125 130 137 135 147 156 145 137 134 157 164 155 146 146 147 166 166 170 167 167 165 146 146 143 140 139 134 126 89 56 66 20 332 111 59 55 353 215 220 223 201 179 230 205 208 218 218 134 132 138 145 156 184
138 139 148 147 124 121 128 138 141 138 141 149 153 147 116 95 101 110 134 171 144 86 61 143 123 128 158 158 180 171 164 144 136 143 133 138 138 143 137 131 72 58 52 42 49 11 350 296 260 258 259 202 194 46 43 126 130 136 138 133 159 210 228
169 160 158 165 159 155 152 155 161 157 155 156 153 145 132 133 134 114 149 110 86 117 142 160 146 163 175 151 142 123 125 133 144 144 143 141 147 149 151 143 133 92 63 78 43 23 22 6 3 345 190 59 118 132 73 55 75 98 112 156 223 235 228